This demonstration page uses our WeatherBlox Daily Observations layout. Learn more.

38.80484, -77.04692

Hourly Observations for October 31, 2020

Temp ( °F °C ) Dew Point ( °F °C ) Humidity (%) Winds ( mph kmh ) Pressure ( in mb ) Visibility ( mi km ) Precip ( " mm )
12:52 am 00:52 Cloudy 48 8.9 40 4.4 74 74 NW 13 20 30.35 1028 10 16.0934 0 0
1:52 am 01:52 Mostly Cloudy 47 8.3 39 3.9 74 74 N 15 24 30.37 1028 10 16.0934 0 0
2:52 am 02:52 Mostly Cloudy 45 7.2 39 3.9 80 80 N 8 13 30.39 1029 10 16.0934 0 0
3:52 am 03:52 Cloudy 46 7.8 39 3.9 77 77 N 10 17 30.4 1029 10 16.0934 0 0
4:52 am 04:52 Mostly Cloudy 46 7.8 36 2.2 68 68 NNE 9 15 30.42 1030 10 16.0934 0 0
5:52 am 05:52 Mostly Cloudy 45 7.2 34 1.1 66 66 N 10 17 30.45 1031 10 16.0934 0 0
6:52 am 06:52 Partly Cloudy 42 5.6 35 1.7 76 76 NNW 8 13 30.47 1032 10 16.0934 0 0
7:52 am 07:52 Partly Cloudy 41 5 36 2.2 82 82 NNW 6 9 30.48 1032 10 16.0934 0 0
8:52 am 08:52 Partly Cloudy 45 7.2 37 2.8 74 74 ENE 8 13 30.52 1033 10 16.0934 0 0
9:52 am 09:52 Partly Cloudy 48 8.9 36 2.2 63 63 NE 8 13 30.54 1034 10 16.0934 0 0
10:52 am 10:52 Mostly Cloudy 48 8.9 38 3.3 68 68 ENE 5 7 30.55 1035 10 16.0934 0 0
10:58 am 10:58 Mostly Cloudy 50 10 38 3.3 63 63 E 3 6 30.55 1035 10 16.0934 0 0
11:11 am 11:11 Mostly Cloudy 48 8.9 38 3.3 68 68 ESE 8 13 30.56 1035 10 16.0934 0 0
11:52 am 11:52 Mostly Cloudy 48 8.9 37 2.8 66 66 ESE 6 9 30.55 1035 10 16.0934 0 0
12:52 pm 12:52 Mostly Cloudy 49 9.4 37 2.8 64 64 SE 10 17 30.53 1034 10 16.0934 0 0
1:52 pm 13:52 Mostly Cloudy 49 9.4 36 2.2 61 61 SE 5 7 30.51 1033 10 16.0934 0 0
2:52 pm 14:52 Cloudy 50 10 37 2.8 61 61 E 9 15 30.49 1033 10 16.0934 0 0
3:52 pm 15:52 Cloudy 50 10 37 2.8 61 61 SSE 9 15 30.48 1032 10 16.0934 0 0
4:52 pm 16:52 Cloudy 49 9.4 37 2.8 64 64 SE 8 13 30.46 1032 10 16.0934 0 0
5:52 pm 17:52 Mostly Cloudy 49 9.4 37 2.8 64 64 SE 9 15 30.44 1031 10 16.0934 0 0
6:52 pm 18:52 Cloudy 48 8.9 37 2.8 66 66 SE 9 15 30.43 1031 10 16.0934 0 0
7:52 pm 19:52 Cloudy 47 8.3 37 2.8 69 69 SE 6 9 30.43 1031 10 16.0934 0 0
8:52 pm 20:52 Cloudy 47 8.3 37 2.8 69 69 SSE 6 9 30.42 1030 10 16.0934 0 0
9:52 pm 21:52 Mostly Cloudy 47 8.3 37 2.8 69 69 S 7 11 30.4 1030 10 16.0934 0 0
10:52 pm 22:52 Cloudy 48 8.9 38 3.3 68 68 S 9 15 30.39 1029 10 16.0934 0 0
11:52 pm 23:52 Cloudy 48 8.9 39 3.9 71 71 S 8 13 30.37 1029 10 16.0934 0 0

Powered by AerisWeather